Location: B?ogocice
(50.2413°N, 20.2361°E)
Time: 04:28:02
(UTC+00:00)

ALOS - Pass Details

Date: 26 September 2024
Orbit: 670 x 673 km, 98.0° (Epoch: 04 October)

Event Time Altitude Azimuth Distance (km) Brightness Sun altitude
Rises 02:39:11 0° 5° (N) 3,030 6.0 -18.5°
Reaches altitude 10° 02:41:43 10° 353° (N) 2,111 4.9 -18.1°
Maximum altitude 02:45:30 26° 298° (WNW) 1,331 3.4 -17.5°
Enters shadow 02:45:53 25° 289° (WNW) 1,341 3.3 -17.5°
